• In United Kingdom
  • List of Countries
  • For 7 days
  • Water Temperature
  • Satellite Maps
  • Weather Map
  • Weather Widgets
  • user-avatar
    Login

    Hourly Weather Jaszczerek

    Today, 26 September, Wednesday

    Time Temperature Precipitation Wind Pressure Humidity
    00:00 +5°C° 0 mm 3 mps 767 mmHg 69%
    01:00 +5°C° 0 mm 3 mps 767 mmHg 74%
    02:00 +5°C° 0 mm 3 mps 767 mmHg 74%
    03:00 +5°C° 0 mm 4 mps 767 mmHg 75%
    04:00 +5°C° 0 mm 4 mps 766 mmHg 75%
    05:00 +5°C° 0 mm 4 mps 766 mmHg 72%
    06:00 +6°C° 0 mm 5 mps 766 mmHg 69%
    07:00 +6°C° 0 mm 5 mps 766 mmHg 66%
    08:00 +8°C° 0 mm 6 mps 766 mmHg 62%
    09:00 +9°C° 0 mm 7 mps 765 mmHg 58%
    10:00 +10°C° 0 mm 7 mps 765 mmHg 54%
    11:00 +10°C° 0.3 mm 7 mps 764 mmHg 59%
    12:00 +9°C° 0.3 mm 7 mps 764 mmHg 63%
    13:00 +8°C° 0.3 mm 7 mps 763 mmHg 68%
    14:00 +8°C° 0.6 mm 7 mps 762 mmHg 67%
    15:00 +9°C° 0.6 mm 7 mps 762 mmHg 67%
    16:00 +9°C° 0.6 mm 7 mps 761 mmHg 66%
    17:00 +9°C° 0.1 mm 7 mps 760 mmHg 64%
    18:00 +10°C° 0.1 mm 7 mps 760 mmHg 61%
    19:00 +10°C° 0.1 mm 7 mps 759 mmHg 59%
    20:00 +11°C° 0 mm 7 mps 759 mmHg 60%
    21:00 +11°C° 0 mm 7 mps 759 mmHg 61%
    22:00 +12°C° 0 mm 7 mps 758 mmHg 61%
    23:00 +12°C° 0 mm 7 mps 758 mmHg 66%

    Tomorrow, 27 September, Thursday

    Time Temperature Precipitation Wind Pressure Humidity
    00:00 +12°C° 0 mm 7 mps 758 mmHg 71%
    01:00 +14°C° 0 mm 7 mps 758 mmHg 75%
    02:00 +14°C° 0.1 mm 7 mps 757 mmHg 78%
    03:00 +14°C° 0.1 mm 7 mps 757 mmHg 81%
    04:00 +15°C° 0.1 mm 7 mps 757 mmHg 84%
    05:00 +15°C° 0.1 mm 7 mps 757 mmHg 85%
    06:00 +15°C° 0.1 mm 6 mps 758 mmHg 85%
    07:00 +15°C° 0.1 mm 6 mps 758 mmHg 85%
    08:00 +15°C° 0.1 mm 6 mps 758 mmHg 83%
    09:00 +16°C° 0.1 mm 6 mps 759 mmHg 80%
    10:00 +16°C° 0.1 mm 6 mps 759 mmHg 78%
    11:00 +17°C° 0.1 mm 6 mps 759 mmHg 77%
    12:00 +17°C° 0.1 mm 6 mps 759 mmHg 75%
    13:00 +17°C° 0.1 mm 6 mps 759 mmHg 74%
    14:00 +17°C° 0 mm 6 mps 758 mmHg 74%
    15:00 +17°C° 0 mm 6 mps 758 mmHg 74%
    16:00 +17°C° 0 mm 5 mps 757 mmHg 73%
    17:00 +17°C° 0 mm 5 mps 757 mmHg 76%
    18:00 +16°C° 0 mm 5 mps 757 mmHg 79%
    19:00 +15°C° 0 mm 5 mps 756 mmHg 82%
    20:00 +16°C° 0 mm 5 mps 756 mmHg 82%
    21:00 +16°C° 0 mm 5 mps 755 mmHg 82%
    22:00 +16°C° 0 mm 6 mps 754 mmHg 82%
    23:00 +16°C° 0 mm 6 mps 754 mmHg 81%

    Day after tomorrow, 28 September, Friday

    Time Temperature Precipitation Wind Pressure Humidity
    00:00 +16°C° 0 mm 6 mps 753 mmHg 81%
    01:00 +16°C° 0 mm 6 mps 752 mmHg 80%
    02:00 +15°C° 0.3 mm 6 mps 752 mmHg 80%
    03:00 +15°C° 0.3 mm 6 mps 752 mmHg 79%
    04:00 +14°C° 0.3 mm 6 mps 752 mmHg 79%
    05:00 +14°C° 0.1 mm 6 mps 752 mmHg 78%
    06:00 +13°C° 0.1 mm 6 mps 752 mmHg 77%
    07:00 +13°C° 0.1 mm 5 mps 753 mmHg 76%
    08:00 +13°C° 0 mm 5 mps 753 mmHg 69%
    09:00 +13°C° 0 mm 6 mps 754 mmHg 62%
    10:00 +14°C° 0 mm 6 mps 754 mmHg 56%
    11:00 +14°C° 0 mm 5 mps 754 mmHg 55%
    12:00 +14°C° 0 mm 5 mps 755 mmHg 55%
    13:00 +14°C° 0 mm 5 mps 755 mmHg 54%
    14:00 +14°C° 0 mm 5 mps 755 mmHg 55%
    15:00 +14°C° 0 mm 5 mps 755 mmHg 56%
    16:00 +13°C° 0 mm 5 mps 755 mmHg 57%
    17:00 +12°C° 0 mm 4 mps 756 mmHg 62%
    18:00 +11°C° 0 mm 3 mps 756 mmHg 67%
    19:00 +10°C° 0 mm 3 mps 756 mmHg 72%
    20:00 +9°C° 0 mm 2 mps 757 mmHg 73%
    21:00 +9°C° 0 mm 2 mps 757 mmHg 74%
    22:00 +8°C° 0 mm 2 mps 757 mmHg 75%
    23:00 +8°C° 0 mm 2 mps 758 mmHg 75%

    29 September, Saturday

    Time Temperature Precipitation Wind Pressure Humidity
    00:00 +7°C° 0 mm 2 mps 758 mmHg 74%
    01:00 +7°C° 0 mm 2 mps 758 mmHg 74%
    02:00 +7°C° 0 mm 2 mps 759 mmHg 74%
    03:00 +7°C° 0 mm 2 mps 759 mmHg 75%
    04:00 +6°C° 0 mm 2 mps 759 mmHg 75%
    05:00 +7°C° 0 mm 2 mps 760 mmHg 73%
    06:00 +7°C° 0 mm 2 mps 760 mmHg 71%
    07:00 +8°C° 0 mm 2 mps 760 mmHg 70%
    08:00 +9°C° 0 mm 2 mps 761 mmHg 61%
    09:00 +12°C° 0 mm 2 mps 762 mmHg 52%
    10:00 +14°C° 0 mm 2 mps 762 mmHg 43%
    11:00 +14°C° 0 mm 2 mps 762 mmHg 40%
    12:00 +15°C° 0 mm 2 mps 762 mmHg 37%
    13:00 +15°C° 0 mm 2 mps 762 mmHg 35%
    14:00 +15°C° 0 mm 2 mps 762 mmHg 36%
    15:00 +14°C° 0 mm 2 mps 763 mmHg 37%
    16:00 +14°C° 0 mm 2 mps 763 mmHg 39%
    17:00 +13°C° 0 mm 1 mps 763 mmHg 43%
    18:00 +11°C° 0 mm 1 mps 763 mmHg 47%
    19:00 +10°C° 0 mm 1 mps 763 mmHg 52%
    20:00 +9°C° 0 mm 1 mps 763 mmHg 53%
    21:00 +9°C° 0 mm 1 mps 763 mmHg 55%
    22:00 +8°C° 0 mm 1 mps 763 mmHg 57%
    23:00 +8°C° 0 mm 1 mps 763 mmHg 58%

    30 September, Sunday

    Time Temperature Precipitation Wind Pressure Humidity
    00:00 +7°C° 0 mm 2 mps 763 mmHg 59%
    01:00 +6°C° 0 mm 2 mps 763 mmHg 60%
    02:00 +6°C° 0 mm 2 mps 763 mmHg 61%
    03:00 +6°C° 0 mm 2 mps 762 mmHg 61%
    04:00 +6°C° 0 mm 2 mps 762 mmHg 62%
    05:00 +6°C° 0 mm 2 mps 762 mmHg 62%
    06:00 +5°C° 0 mm 3 mps 762 mmHg 62%
    07:00 +7°C° 0 mm 3 mps 762 mmHg 62%
    08:00 +9°C° 0 mm 3 mps 762 mmHg 58%
    09:00 +11°C° 0 mm 4 mps 762 mmHg 53%
    10:00 +13°C° 0 mm 4 mps 762 mmHg 49%
    11:00 +14°C° 0 mm 4 mps 761 mmHg 47%
    12:00 +14°C° 0 mm 4 mps 761 mmHg 45%
    13:00 +15°C° 0 mm 4 mps 760 mmHg 43%
    14:00 +15°C° 0 mm 4 mps 759 mmHg 44%
    15:00 +14°C° 0 mm 4 mps 759 mmHg 45%
    16:00 +14°C° 0 mm 3 mps 758 mmHg 46%
    17:00 +13°C° 0 mm 3 mps 758 mmHg 50%
    18:00 +11°C° 0 mm 3 mps 758 mmHg 54%
    19:00 +10°C° 0 mm 2 mps 758 mmHg 57%
    20:00 +9°C° 0 mm 2 mps 757 mmHg 57%
    21:00 +9°C° 0 mm 2 mps 757 mmHg 57%
    22:00 +8°C° 0 mm 2 mps 757 mmHg 57%
    23:00 +8°C° 0 mm 2 mps 756 mmHg 58%

    1 October, Monday

    Time Temperature Precipitation Wind Pressure Humidity
    00:00 +7°C° 0 mm 2 mps 756 mmHg 58%
    01:00 +7°C° 0 mm 2 mps 755 mmHg 59%
    02:00 +6°C° 0 mm 2 mps 755 mmHg 60%
    03:00 +6°C° 0 mm 2 mps 754 mmHg 62%
    04:00 +6°C° 0 mm 2 mps 753 mmHg 64%
    05:00 +6°C° 0 mm 2 mps 753 mmHg 65%
    06:00 +6°C° 0 mm 2 mps 753 mmHg 66%
    07:00 +5°C° 0 mm 3 mps 752 mmHg 67%
    08:00 +8°C° 0 mm 3 mps 752 mmHg 62%
    09:00 +10°C° 0 mm 3 mps 752 mmHg 57%
    10:00 +12°C° 0 mm 3 mps 751 mmHg 52%
    11:00 +13°C° 0 mm 3 mps 751 mmHg 49%
    12:00 +14°C° 0 mm 3 mps 750 mmHg 46%
    13:00 +16°C° 0 mm 3 mps 750 mmHg 43%
    14:00 +16°C° 0 mm 2 mps 749 mmHg 46%
    15:00 +16°C° 0 mm 1 mps 749 mmHg 49%
    16:00 +16°C° 0 mm 1 mps 749 mmHg 52%
    17:00 +15°C° 0 mm 1 mps 749 mmHg 56%
    18:00 +14°C° 0 mm 1 mps 749 mmHg 59%
    19:00 +13°C° 0 mm 1 mps 749 mmHg 63%
    20:00 +12°C° 0 mm 1 mps 749 mmHg 65%
    21:00 +12°C° 0 mm 1 mps 749 mmHg 67%
    22:00 +11°C° 0 mm 1 mps 750 mmHg 69%
    23:00 +10°C° 0 mm 2 mps 750 mmHg 69%
    Show more